Location: San Antonio
(29.4240°N, 98.4930°W)
Time: 08:08:10
(UTC-05:00)

Envisat - Pass Details

Date: 20 June 2024
Orbit: 762 x 764 km, 98.3° (Epoch: 12 July)

Event Time Altitude Azimuth Distance (km) Brightness Sun altitude
Rises 05:39:43 0° 354° (N) 3,226 6.7 -11.1°
Reaches altitude 10° 05:42:27 10° 340° (NNW) 2,297 5.7 -10.6°
Maximum altitude 05:46:18 22° 290° (WNW) 1,605 4.4 -9.9°
Enters shadow 05:49:48 11° 243° (WSW) 2,190 4.7 -9.3°
